Ireland West Airport Knock, Ireland

4:22 PM IST on April 24, 2018 (GMT +0100)
Connaught

Weather History for EIKN - June, 2013

Change the Weather History Date:

Monday, June 24, 2013

  Actual Average Record
Temperature  
Mean Temperature 51 °F -  
Max Temperature 59 °F - - ()
Min Temperature 43 °F - - ()
Degree Days  
Heating Degree Days 14    
Growing Degree Days 1 (Base 50)    
Moisture  
Dew Point 46 °F    
Average Humidity 77    
Maximum Humidity 100    
Minimum Humidity 57    
Precipitation  
Precipitation 0.00 in - - ()
Sea Level Pressure  
Sea Level Pressure 30.24 in    
Wind  
Wind Speed 6 mph ()    
Max Wind Speed 11 mph    
Max Gust Speed -    
Visibility 6.3 miles    
Events Rain    
T = Trace of Precipitation, MM = Missing Value Source: Averaged Metar Reports

Daily Weather History Graph

Daily Weather History Graph

Search for Another Location

Airport or City:

Astronomy

Jun. 24, 2013 Rise Set
Actual Time 5:04 AM IST 10:11 PM IST
Civil Twilight 4:10 AM IST 11:05 PM IST
Nautical Twilight 2:25 AM IST 12:49 AM IST
Astronomical Twilight Sun does not set Sun does not set
Moon 10:40 PM IST 6:32 AM IST
Length of Visible Light 18h 55m
Length of Day
17h 06m
Full, 98% of the Moon is Illuminated
Jun 24
Full
Jun 30
Last Quarter
Jul 8
New
Jul 16
First Quarter
Jul 22
Full

Hourly Weather History & Observations

Time (IST) Temp. Windchill Dew Point Humidity Pressure Visibility Wind Dir Wind Speed Gust Speed Precip Events Conditions
1:00 AM 48 °F - 46 °F 89% 30.25 in - WNW 11.2 mph - -  
6:00 AM 46.4 °F 44.3 °F 44.6 °F 93% 30.24 in 6.2 mi WSW 4.6 mph - N/A   Mostly Cloudy
6:30 AM 46.4 °F 43.5 °F 46.4 °F 100% 30.24 in 5.6 mi West 5.8 mph - N/A Rain Light Rain
7:00 AM 47 °F - 46 °F 95% 30.27 in 9 mi West 8.9 mph - - Rain Light Rain
7:00 AM 46.4 °F 42.4 °F 46.4 °F 100% 30.24 in 6.2 mi West 8.1 mph - N/A Rain Light Rain
7:30 AM 48.2 °F - 46.4 °F 93% 30.24 in 6.2 mi West 6.9 mph - N/A   Mostly Cloudy
8:00 AM 48.2 °F - 46.4 °F 93% 30.24 in 6.2 mi West 8.1 mph - N/A   Mostly Cloudy
8:30 AM 48.2 °F - 46.4 °F 93% 30.24 in 6.2 mi West 9.2 mph - N/A Rain Light Rain
9:00 AM 48.2 °F - 48.2 °F 100% 30.24 in 6.2 mi West 6.9 mph - N/A   Mostly Cloudy
9:30 AM 50.0 °F - 46.4 °F 87% 30.24 in 6.2 mi West 6.9 mph - N/A   Mostly Cloudy
10:00 AM 51.8 °F - 46.4 °F 82% 30.24 in 6.2 mi West 5.8 mph - N/A   Mostly Cloudy
10:30 AM 51.8 °F - 44.6 °F 76% 30.24 in 6.2 mi West 5.8 mph - N/A   Mostly Cloudy
11:00 AM 53.6 °F - 44.6 °F 72% 30.24 in 6.2 mi WNW 5.8 mph - N/A   Mostly Cloudy
11:30 AM 53.6 °F - 44.6 °F 72% 30.24 in 6.2 mi NW 5.8 mph - N/A   Mostly Cloudy
12:00 PM 55.4 °F - 46.4 °F 72% 30.24 in 6.2 mi WNW 4.6 mph - N/A   Mostly Cloudy
12:30 PM 53.6 °F - 46.4 °F 77% 30.24 in 6.2 mi WSW 9.2 mph - N/A   Mostly Cloudy
1:00 PM 55 °F - 46 °F 63% 30.27 in 28 mi SW 6.7 mph - -   Partly Cloudy
1:00 PM 55.4 °F - 46.4 °F 72% 30.24 in 6.2 mi SW 5.8 mph - N/A   Mostly Cloudy
1:30 PM 55.4 °F - 46.4 °F 72% 30.24 in 6.2 mi SW 4.6 mph - N/A   Mostly Cloudy
2:00 PM 57.2 °F - 46.4 °F 67% 30.24 in 6.2 mi WSW 5.8 mph - N/A   Mostly Cloudy
2:30 PM 57.2 °F - 46.4 °F 67% 30.24 in 6.2 mi West 4.6 mph - N/A   Mostly Cloudy
3:00 PM 59.0 °F - 44.6 °F 59% 30.24 in 6.2 mi WSW 5.8 mph - N/A   Mostly Cloudy
3:30 PM 59.0 °F - 44.6 °F 59% 30.24 in 6.2 mi West 6.9 mph - N/A   Mostly Cloudy
4:00 PM 57.2 °F - 46.4 °F 67% 30.24 in 6.2 mi West 6.9 mph - N/A   Mostly Cloudy
4:30 PM 57.2 °F - 46.4 °F 67% 30.24 in 6.2 mi WNW 4.6 mph - N/A   Mostly Cloudy
5:00 PM 57.2 °F - 46.4 °F 67% 30.24 in 6.2 mi Variable 2.3 mph - N/A   Mostly Cloudy
5:30 PM 57.2 °F - 46.4 °F 67% 30.24 in 6.2 mi West 2.3 mph - N/A   Mostly Cloudy
6:00 PM 57.2 °F - 46.4 °F 67% 30.24 in 6.2 mi SSW 2.3 mph - N/A   Mostly Cloudy
7:00 PM 58 °F - 47 °F 57% 30.26 in 37 mi West 4.5 mph - -   Mostly Cloudy
7:00 PM 57.2 °F - 46.4 °F 67% 30.24 in 6.2 mi West 4.6 mph - N/A   Mostly Cloudy